| time (UTC) | temp F | wind direction | speed knots | gust knots | rain 1hr in | rain 24hr in | rain mn in | humidity % | barometer mb |
| 20260902062438 | 59 | 179 | 6.1 | 7.0 | 0.00 | 0.05 | 0.00 | 98 | 1008.3 |
| 20260902060440 | 59 | 184 | 6.1 | 7.0 | 0.00 | 0.05 | 0.00 | 97 | 1008.2 |
| 20260902054439 | 60 | 178 | 4.3 | 5.2 | 0.00 | 0.05 | 0.00 | 97 | 1008.0 |
| 20260902052439 | 60 | 194 | 4.3 | 5.2 | 0.00 | 0.05 | 0.00 | 98 | 1008.1 |
| 20260902050439 | 58 | 185 | 3.5 | 5.2 | 0.00 | 0.05 | 0.00 | 98 | 1008.2 |
| 20260902044437 | 58 | 202 | 3.5 | 3.5 | 0.00 | 0.05 | 0.00 | 98 | 1008.1 |
| 20260902040440 | 58 | 239 | 4.3 | 6.1 | 0.00 | 0.05 | 0.00 | 98 | 1008.1 |
| 20260902034439 | 57 | 239 | 4.3 | 4.3 | 0.00 | 0.05 | 0.00 | 97 | 1008.1 |
| 20260902032440 | 57 | 264 | 3.5 | 4.3 | 0.00 | 0.05 | 0.00 | 96 | 1008.2 |
| 20260902030439 | 56 | 269 | 4.3 | 4.3 | 0.00 | 0.05 | 0.00 | 95 | 1008.1 |
| 20260902024441 | 56 | 274 | 3.5 | 3.5 | 0.00 | 0.05 | 0.00 | 95 | 1008.2 |
| 20260902022439 | 56 | 293 | 3.5 | 3.5 | 0.00 | 0.05 | 0.00 | 96 | 1008.3 |
| 20260902020438 | 55 | 312 | 2.6 | 2.6 | 0.00 | 0.05 | 0.00 | 96 | 1008.2 |
| 20260902014440 | 56 | 319 | 3.5 | 3.5 | 0.00 | 0.05 | 0.00 | 96 | 1008.2 |
| 20260902012441 | 56 | 360 | 1.7 | 2.6 | 0.00 | 0.05 | 0.00 | 96 | 1008.3 |
| 20260902010438 | 56 | 1 | 1.7 | 2.6 | 0.00 | 0.05 | 0.00 | 96 | 1008.2 |
| 20260902004440 | 56 | 339 | 2.6 | 3.5 | 0.00 | 0.05 | 0.00 | 94 | 1008.3 |
| 20260902002440 | 57 | 312 | 3.5 | 3.5 | 0.00 | 0.05 | 0.00 | 94 | 1008.3 |
| 20260902000439 | 57 | 310 | 3.5 | 3.5 | 0.00 | 0.05 | 0.00 | 94 | 1008.3 |
| 20260901234439 | 56 | 304 | 2.6 | 2.6 | 0.00 | 0.05 | 0.00 | 92 | 1008.3 |
| 20260901232438 | 57 | 301 | 2.6 | 3.5 | 0.00 | 0.05 | 0.00 | 92 | 1008.2 |
| 20260901230439 | 57 | 323 | 2.6 | 2.6 | 0.00 | 0.05 | 0.00 | 92 | 1008.2 |
| 20260901224439 | 57 | 331 | 3.5 | 4.3 | 0.00 | 0.05 | 0.00 | 91 | 1008.2 |
| 20260901222439 | 58 | 348 | 3.5 | 5.2 | 0.00 | 0.05 | 0.00 | 89 | 1008.3 |
| 20260901220438 | 58 | 338 | 4.3 | 6.1 | 0.00 | 0.05 | 0.00 | 86 | 1008.4 |
| 20260901212439 | 59 | 334 | 4.3 | 6.1 | 0.00 | 0.05 | 0.00 | 95 | 1008.4 |
| 20260901210437 | 59 | 328 | 4.3 | 6.1 | 0.00 | 0.05 | 0.00 | 95 | 1008.3 |
| 20260901204437 | 59 | 324 | 4.3 | 7.0 | 0.00 | 0.05 | 0.05 | 95 | 1008.5 |
| 20260901202438 | 59 | 321 | 5.2 | 6.1 | 0.00 | 0.05 | 0.05 | 95 | 1008.4 |
| 20260901194435 | 60 | 298 | 3.5 | 4.3 | 0.00 | 0.05 | 0.05 | 96 | 1008.4 |
| 20260901192436 | 60 | 301 | 4.3 | 6.1 | 0.00 | 0.05 | 0.05 | 96 | 1008.3 |
| 20260901190437 | 60 | 305 | 4.3 | 5.2 | 0.00 | 0.05 | 0.05 | 95 | 1008.3 |
| 20260901184437 | 61 | 265 | 5.2 | 6.1 | 0.00 | 0.05 | 0.05 | 95 | 1008.3 |
| 20260901182437 | 61 | 263 | 5.2 | 6.1 | 0.00 | 0.05 | 0.05 | 96 | 1008.3 |
| 20260901180436 | 61 | 249 | 5.2 | 6.1 | 0.00 | 0.05 | 0.05 | 95 | 1008.4 |
| 20260901174436 | 61 | 238 | 5.2 | 5.2 | 0.00 | 0.05 | 0.05 | 93 | 1008.2 |
| 20260901172438 | 61 | 242 | 5.2 | 6.1 | 0.00 | 0.05 | 0.05 | 92 | 1008.1 |
| 20260901170438 | 62 | 224 | 4.3 | 6.1 | 0.00 | 0.05 | 0.05 | 89 | 1008.0 |
| 20260901164438 | 62 | 225 | 5.2 | 6.1 | 0.00 | 0.05 | 0.05 | 88 | 1008.0 |
| 20260901162437 | 63 | 242 | 5.2 | 6.1 | 0.00 | 0.05 | 0.05 | 86 | 1008.0 |
| 20260901160436 | 63 | 225 | 5.2 | 6.1 | 0.00 | 0.05 | 0.05 | 82 | 1007.9 |
| 20260901154107 | 64 | 278 | 5.2 | 6.1 | 0.00 | 0.05 | 0.05 | 77 | 1007.7 |
| 20260901144436 | 64 | 269 | 4.3 | 7.0 | 0.00 | 0.05 | 0.05 | 76 | 1007.9 |
| 20260901140435 | 64 | 269 | 7.8 | 9.6 | 0.00 | 0.05 | 0.05 | 85 | 1008.0 |
| 20260901134435 | 65 | 264 | 7.8 | 9.6 | 0.00 | 0.05 | 0.05 | 86 | 1008.0 |
| 20260901132436 | 64 | 230 | 7.0 | 10.4 | 0.00 | 0.05 | 0.05 | 91 | 1008.2 |
| 20260901130434 | 64 | 225 | 7.8 | 10.4 | 0.00 | 0.05 | 0.05 | 90 | 1008.3 |
| 20260901120435 | 64 | 217 | 7.0 | 9.6 | 0.04 | 0.05 | 0.05 | 96 | 1008.1 |
| 20260901114435 | 63 | 222 | 7.8 | 9.6 | 0.04 | 0.05 | 0.05 | 96 | 1008.1 |
| 20260901112434 | 63 | 222 | 9.6 | 11.3 | 0.04 | 0.05 | 0.05 | 96 | 1008.1 |
| 20260901110435 | 64 | 215 | 9.6 | 12.2 | 0.04 | 0.05 | 0.05 | 96 | 1008.1 |
| 20260901104434 | 62 | 226 | 10.4 | 13.0 | 0.02 | 0.02 | 0.02 | 95 | 1008.2 |
| 20260901102435 | 61 | 225 | 12.2 | 13.9 | 0.02 | 0.02 | 0.02 | 94 | 1008.2 |
| 20260901100434 | 62 | 210 | 12.2 | 20.0 | 0.02 | 0.02 | 0.02 | 95 | 1008.1 |
| 20260901094436 | 63 | 213 | 10.4 | 13.0 | 0.00 | 0.00 | 0.00 | 90 | 1008.1 |
| 20260901092435 | 65 | 202 | 10.4 | 12.2 | 0.00 | 0.00 | 0.00 | 87 | 1007.9 |
| 20260901090434 | 66 | 202 | 9.6 | 12.2 | 0.00 | 0.00 | 0.00 | 88 | 1007.8 |
| 20260901084434 | 65 | 207 | 7.8 | 10.4 | 0.00 | 0.00 | 0.00 | 89 | 1007.7 |
| 20260901082434 | 66 | 208 | 9.6 | 13.0 | 0.00 | 0.00 | 0.00 | 86 | 1007.6 |
| 20260901080435 | 65 | 219 | 11.3 | 13.9 | 0.00 | 0.00 | 0.00 | 87 | 1007.5 |
| 20260901074433 | 65 | 221 | 11.3 | 13.9 | 0.00 | 0.00 | 0.00 | 89 | 1007.3 |
| 20260901072435 | 64 | 216 | 10.4 | 12.2 | 0.00 | 0.00 | 0.00 | 92 | 1007.3 |
| 20260901070433 | 65 | 203 | 10.4 | 13.0 | 0.00 | 0.00 | 0.00 | 91 | 1007.1 |